Página principal
METAR-TAF:

METAR-TAF

Aeroportos :

Atar, Mauritânia

latitude: 20-30-24N, longitude: 013-02-35W, altura: 231 m

Observação actual do tempo

O boletim foi feito há 5 horas e 33 minutos, às 18:00 UTC
Vento 6 kt de oeste
Temperatura 30°C
Humidade 18%
Pressão 1011 hPa
Visibilidade: 8000 m

METAR: GQPA 151800Z 28006KT 8000 NSC 30/03 Q1011

Hora: 23:33 (23:33 UTC)


TAF: em falta

Observações e previsões do tempo de mais de 4000 aeroportos (mensagens METAR e TAF).

As estações disponíveis são os pontos amarelos e vermelhos sobre o mapa.

Mova o rato sobre o mapa para ver o nome da estação.

Depois clique no ponto para visualizar as observações e previsões meteorológicas.

Para alterar o mapa : clique nos botões verdes com uma cruz preta para aumentar o zoom; no botão verde com uma pitada de zoom; ou nas setas verdes para mapas adjacentes.


METAR-TAF: